Regional Weather Roundup
Issued by NWS

Home | Current Version | Previous Version | Text Only | Print | Product List | Glossary Off
Versions: 1 2 3 4 5 6 7 8 9 10 11 12 13 14 15 16 17 18 19 20 21 22 23 24 25 26 27 28 29 30 31 32 33 34 35 36 37 38 39 40 41 42 43 44 45 46 47 48 49 50

000
ASUS43 KDTX 191801
RWRMI
MICHIGAN HOURLY REGIONAL WEATHER ROUNDUP
NATIONAL WEATHER SERVICE DETROIT/PONTIAC MI
200 PM EDT TUE SEP 19 2017

NOTE: "FAIR" INDICATES FEW OR NO CLOUDS BELOW 12,000 FEET WITH NO
SIGNIFICANT WEATHER AND/OR OBSTRUCTION TO VISIBILITY.

MIZ047>049-052>055-059>063-066>070-074>076-081>083-191900-
SOUTHEAST LOWER MICHIGAN

CITY           SKY/WX    TMP DP  RH WIND       PRES   REMARKS
ADRIAN         CLOUDY    71  65  81 E7        29.98F
6HR MIN TEMP:  64; 6HR MAX TEMP:  71; 6HR PCP:  0.20;

ALMA           CLOUDY    68  58  69 E8        30.03S
6HR MIN TEMP:  56; 6HR MAX TEMP:  68;

ANN ARBOR      CLOUDY    70  68  93 NE10      29.98F
BAD AXE        CLOUDY    69  65  86 E5        30.04S
CARO           CLOUDY    69  63  81 E3        30.02F
DETROIT CITY   LGT RAIN  69  68  96 NE7       29.99F FOG
6HR MIN TEMP:  63; 6HR MAX TEMP:  70; 6HR PCP:  0.08;

DETROIT        CLOUDY    70  68  93 E7        29.99F
6HR MIN TEMP:  65; 6HR MAX TEMP:  72; 6HR PCP:  0.29;

FLINT          CLOUDY    67  61  81 NE12      30.01F
6HR MIN TEMP:  60; 6HR MAX TEMP:  67; 6HR PCP: TRACE;

GROSSE ILE     CLOUDY    70  69  95 E5        29.97F FOG
6HR MIN TEMP:  64; 6HR MAX TEMP:  70; 6HR PCP:  0.51;

HILLSDALE      CLOUDY    68  63  83 E9        29.99S
HOWELL         CLOUDY    67  64  93 E5        30.00F FOG
6HR MIN TEMP:  59; 6HR MAX TEMP:  67; 6HR PCP:  0.02;


CITY           SKY/WX    TMP DP  RH WIND       PRES   REMARKS
JACKSON        CLOUDY    70  65  84 E3        29.99F
6HR MIN TEMP:  62; 6HR MAX TEMP:  70;

LAMBERTVILLE   CLOUDY    71  68  90 E3        29.97F FOG
6HR MIN TEMP:  66; 6HR MAX TEMP:  72;

LANSING        CLOUDY    67  58  72 E5        30.01F
6HR MIN TEMP:  60; 6HR MAX TEMP:  67; 6HR PCP:  0.01;

LAPEER         CLOUDY    67  62  84 CALM      30.03S
6HR MIN TEMP:  61; 6HR MAX TEMP:  67;

MASON          CLOUDY    69  62  78 NE5       30.00S
MONROE         CLOUDY    70  67  90 E6        29.98S FOG
6HR MIN TEMP:  65; 6HR MAX TEMP:  71; 6HR PCP:  0.72;

MT. CLEMENS    LGT RAIN  69  69 100 E7        29.98F FOG
6HR MIN TEMP:  64; 6HR MAX TEMP:  71; 6HR PCP:  0.05;

PONTIAC        LGT RAIN  69  66  90 NE6       29.99F FOG
6HR MIN TEMP:  63; 6HR MAX TEMP:  69; 6HR PCP:  0.01;

PORT HOPE        N/A     66  63  90 E9        30.02F
6HR MIN TEMP:  65; 6HR MAX TEMP:  66;

PORT HURON     DRIZZLE   70  68  94 CALM      30.01F
TRI CITIES     CLOUDY    69  63  81 E10       30.03F
6HR MIN TEMP:  55; 6HR MAX TEMP:  70;

MIDLAND        FAIR      69  61  75 NE8       30.02F
6HR MIN TEMP:  55; 6HR MAX TEMP:  70;

TROY           LGT RAIN  69  67  92 NE7       30.01F
SAGINAW HB     CLOUDY    70  61  73 NE7       30.01F
$$
MIZ043>046-050>051-056>058-064>065-071>073-077>080-191900-
SOUTHWEST LOWER MICHIGAN

CITY           SKY/WX    TMP DP  RH WIND       PRES   REMARKS
BATTLE CREEK   CLOUDY    67  65  93 NE7       29.99F
6HR MIN TEMP:  63; 6HR MAX TEMP:  68;

BENTON HARBOR  LGT RAIN  69  62  78 E3        29.97F
6HR MIN TEMP:  66; 6HR MAX TEMP:  72;

BIG RAPIDS     PTSUNNY   70  55  58 E6G26     30.01F
6HR MIN TEMP:  54; 6HR MAX TEMP:  71;

COLDWATER      CLOUDY    70  65  82 E3        29.97F
6HR MIN TEMP:  65; 6HR MAX TEMP:  71;

FREMONT        FAIR      71  60  66 E9        30.00S
HOLLAND        CLOUDY    73  61  65 E10       29.99S
6HR MIN TEMP:  63; 6HR MAX TEMP:  74;

GRAND RAPIDS   CLOUDY    71  58  63 E8        30.00R
6HR MIN TEMP:  61; 6HR MAX TEMP:  71;

IONIA          CLOUDY    71  58  62 NE12      29.99F
6HR MIN TEMP:  59; 6HR MAX TEMP:  71;

KALAMAZOO      CLOUDY    69  62  78 NE6       29.99S HAZE
6HR MIN TEMP:  66; 6HR MAX TEMP:  70; 6HR PCP:  0.17;

LUDINGTON      MOSUNNY   72  56  58 SE6       29.99F
6HR MIN TEMP:  57; 6HR MAX TEMP:  72;

MARSHALL       CLOUDY    68  66  93 E3        29.99S
6HR MIN TEMP:  62; 6HR MAX TEMP:  69; 6HR PCP:  0.08;

MOUNT PLEASANT MOSUNNY   70  57  64 E7        30.02F
6HR MIN TEMP:  56; 6HR MAX TEMP:  70;

MUSKEGON       CLOUDY    73  56  54 E10       29.99F
6HR MIN TEMP:  62; 6HR MAX TEMP:  73;

SOUTH HAVEN    CLOUDY    73  64  75 NE5       29.97S
$$
MIZ016>042-191900-
NORTHERN LOWER MICHIGAN

CITY           SKY/WX    TMP DP  RH WIND       PRES   REMARKS
ALPENA         PTSUNNY   67  59  75 E8        30.07F
6HR MIN TEMP:  51; 6HR MAX TEMP:  69;

BEAVER ISLAND  SUNNY     71  57  61 E7G17     30.05F
6HR MIN TEMP:  55; 6HR MAX TEMP:  71;

BELLAIRE       MOSUNNY   72  53  51 E3        30.02F
CADILLAC       CLOUDY    73  47  40 E12       30.03S
CHARLEVOIX     CLOUDY    71  55  57 E9        30.06F
FRANKFORT      SUNNY     75  47  37 SE5       30.00F
GAYLORD        MOSUNNY   68  52  56 E8        30.05F
6HR MIN TEMP:  50; 6HR MAX TEMP:  69;

GRAYLING       CLOUDY    70  52  53 SE8       30.05F
6HR MIN TEMP:  45; 6HR MAX TEMP:  70;

HARBOR SPRINGS MOSUNNY   72  53  51 E9        30.04S
HOUGHTON LAKE  CLOUDY    70  50  49 E9        30.05F
6HR MIN TEMP:  48; 6HR MAX TEMP:  71;

MANISTEE       MOSUNNY   71  54  54 CALM      30.00F
OSCODA         MOSUNNY   68  58  69 NE6       30.05F
6HR MIN TEMP:  49; 6HR MAX TEMP:  69;

PELLSTON       MOSUNNY   72  52  49 SE12      30.05F
6HR MIN TEMP:  48; 6HR MAX TEMP:  72;

ROGERS CITY    MOSUNNY   66  58  75 NE12G17   30.08F
TRAVERSE CITY  CLOUDY    73  53  49 NW3       30.00F
6HR MIN TEMP:  54; 6HR MAX TEMP:  73;

$$
MIZ007>008-015-191900-
EASTERN UPPER MICHIGAN

CITY           SKY/WX    TMP DP  RH WIND       PRES   REMARKS
KINROSS        SUNNY     70  43  37 E17       30.08F
6HR MIN TEMP:  54; 6HR MAX TEMP:  70;

MACKINAC ISLAN CLOUDY    66  57  74 E13G18    30.07S
6HR MIN TEMP:  60; 6HR MAX TEMP:  66;

NEWBERRY       MOSUNNY   71  53  53 SE8       30.06F
6HR MIN TEMP:  52; 6HR MAX TEMP:  71;

S. S. MARIE    SUNNY     70  51  51 SE8       30.08S
6HR MIN TEMP:  55; 6HR MAX TEMP:  70;

MUNISING         N/A     74  54  49 VRB6      30.02F
6HR MIN TEMP:  57; 6HR MAX TEMP:  74;

$$
MIZ004>006-011>014-085-191900-
CENTRAL UPPER MICHIGAN

CITY           SKY/WX    TMP DP  RH WIND       PRES   REMARKS
MANISTIQUE     SUNNY     68  51  54 E10       30.05F
6HR MIN TEMP:  52; 6HR MAX TEMP:  69;

ESCANABA       SUNNY     67  55  65 E9        30.04F
6HR MIN TEMP:  58; 6HR MAX TEMP:  68;

SAWYER-GWINN   MOSUNNY   70  57  64 S9        30.04F
$$
MIZ001>003-009>011-084-191900-
WESTERN UPPER MICHIGAN

CITY           SKY/WX    TMP DP  RH WIND       PRES   REMARKS
IRON MOUNTAIN  CLOUDY    69  57  65 SE7       30.01F
HOUGHTON       SUNNY     66  52  60 E9        30.00F
6HR MIN TEMP:  56; 6HR MAX TEMP:  66;

COPPER HARBOR    N/A     66  51  58 VRB7      30.01F
6HR MIN TEMP:  57; 6HR MAX TEMP:  67;

IRONWOOD       SUNNY     73  56  54 SE10      29.97F
6HR MIN TEMP:  56; 6HR MAX TEMP:  73;

$$

ABBREVIATIONS USED IN REMARKS
   TC - TEMPERATURE IN CELSIUS
  WCI - WIND CHILL INDEX
   HX - HEAT INDEX
  VSB - VISIBILITY




USA.gov is the U.S. government's official web portal to all federal, state and local government web resources and services.